QPF
0.00 0.00 0.00 0.00 0.01 0.02 0.03 0.03 0.04 0.04 0.07 0.07 0.03 0.01 0.01 0.01 0.01 0.02 0.04 0.04 0.04 0.06 0.07 0.07 0.07 0.05 0.04 0.04 0.02 0.01 0.01 0.02 0.02 0.03 0.02 0.02 0.03 0.02 0.02 0.02 0.03 0.04 0.05 0.05 0.05 0.06 0.06 0.06 0.03
0.00 0.00 0.00 0.01 0.02 0.02 0.03 0.04 0.04 0.04 0.04 0.04 0.02 0.01 0.01 0.01 0.00 0.01 0.03 0.04 0.03 0.03 0.05 0.06 0.05 0.04 0.03 0.02 0.01 0.01 0.01 0.01 0.02 0.03 0.02 0.02 0.03 0.02 0.02 0.03 0.03 0.05 0.05 0.03 0.04 0.04 0.04 0.04 0.03
0.00 0.00 0.01 0.02 0.02 0.03 0.03 0.05 0.06 0.07 0.04 0.02 0.02 0.01 0.01 0.01 0.01 0.02 0.02 0.02 0.02 0.03 0.06 0.07 0.05 0.02 0.01 0.01 0.01 0.01 0.00 0.01 0.02 0.03 0.02 0.02 0.02 0.02 0.02 0.03 0.04 0.05 0.05 0.04 0.05 0.04 0.03 0.03 0.02
0.00 0.01 0.01 0.01 0.02 0.02 0.02 0.05 0.09 0.10 0.05 0.02 0.01 0.01 0.01 0.01 0.01 0.01 0.02 0.01 0.02 0.03 0.04 0.05 0.03 0.01 0.01 0.01 0.01 0.00 0.00 0.01 0.03 0.04 0.02 0.02 0.02 0.03 0.03 0.03 0.04 0.04 0.04 0.04 0.04 0.04 0.03 0.02 0.03
0.00 0.01 0.00 0.01 0.02 0.02 0.03 0.05 0.05 0.07 0.04 0.02 0.01 0.01 0.02 0.02 0.01 0.01 0.01 0.01 0.01 0.01 0.02 0.03 0.01 0.01 0.01 0.00 0.00 0.01 0.02 0.03 0.05 0.05 0.03 0.03 0.02 0.03 0.03 0.04 0.03 0.03 0.03 0.03 0.03 0.03 0.04 0.03 0.04
0.00 0.00 0.00 0.00 0.02 0.03 0.04 0.04 0.04 0.04 0.03 0.02 0.01 0.01 0.02 0.02 0.01 0.01 0.01 0.01 0.01 0.00 0.01 0.02 0.01 0.01 0.00 0.00 0.00 0.01 0.02 0.04 0.05 0.04 0.04 0.03 0.04 0.04 0.03 0.03 0.03 0.03 0.02 0.02 0.03 0.03 0.04 0.03 0.04
0.00 0.00 0.00 0.00 0.01 0.03 0.04 0.05 0.05 0.04 0.03 0.01 0.01 0.01 0.02 0.05 0.03 0.02 0.01 0.02 0.02 0.02 0.01 0.01 0.01 0.01 0.01 0.01 0.01 0.02 0.02 0.03 0.05 0.05 0.06 0.06 0.06 0.05 0.04 0.03 0.03 0.02 0.02 0.02 0.03 0.03 0.04 0.03 0.02
0.01 0.00 0.00 0.00 0.02 0.03 0.03 0.06 0.06 0.05 0.03 0.01 0.00 0.01 0.01 0.02 0.03 0.02 0.02 0.04 0.03 0.03 0.02 0.01 0.00 0.00 0.00 0.01 0.01 0.02 0.02 0.03 0.04 0.05 0.06 0.07 0.05 0.04 0.04 0.04 0.02 0.01 0.01 0.01 0.02 0.02 0.02 0.03 0.03
0.00 0.00 0.00 0.01 0.02 0.03 0.03 0.05 0.05 0.04 0.02 0.01 0.00 0.00 0.00 0.01 0.02 0.03 0.04 0.05 0.03 0.03 0.03 0.02 0.01 0.00 0.00 0.00 0.01 0.01 0.02 0.02 0.03 0.03 0.05 0.04 0.03 0.02 0.03 0.04 0.03 0.01 0.02 0.02 0.02 0.02 0.02 0.02 0.04
0.00 0.00 0.00 0.00 0.01 0.02 0.03 0.04 0.07 0.07 0.05 0.02 0.01 0.01 0.00 0.01 0.02 0.02 0.01 0.02 0.07 0.08 0.04 0.03 0.02 0.01 0.01 0.00 0.00 0.00 0.00 0.00 0.00 0.01 0.01 0.01 0.01 0.01 0.03 0.05 0.04 0.02 0.03 0.02 0.02 0.02 0.02 0.01 0.02
0.00 0.00 0.00 0.01 0.01 0.02 0.03 0.04 0.05 0.05 0.04 0.02 0.01 0.00 0.01 0.01 0.01 0.01 0.01 0.02 0.09 0.05 0.02 0.01 0.01 0.02 0.01 0.00 0.00 0.00 0.00 0.00 0.00 0.00 0.00 0.00 0.00 0.01 0.03 0.06 0.05 0.02 0.03 0.02 0.02 0.02 0.01 0.01 0.01
0.00 0.00 0.00 0.00 0.01 0.02 0.03 0.03 0.03 0.02 0.01 0.01 0.00 0.01 0.01 0.01 0.01 0.01 0.01 0.02 0.02 0.01 0.01 0.01 0.01 0.01 0.01 0.00 0.00 0.00 0.00 0.00 0.00 0.00 0.00 0.00 0.00 0.01 0.02 0.06 0.05 0.02 0.03 0.01 0.01 0.01 0.01 0.01 0.01
0.00 0.00 0.00 0.00 0.00 0.01 0.01 0.01 0.01 0.01 0.00 0.00 0.00 0.01 0.01 0.01 0.02 0.03 0.02 0.03 0.01 0.01 0.01 0.02 0.02 0.01 0.01 0.00 0.00 0.00 0.00 0.00 0.00 0.01 0.01 0.00 0.01 0.01 0.02 0.06 0.06 0.02 0.02 0.01 0.01 0.02 0.02 0.01 0.02
0.00 0.00 0.00 0.00 0.01 0.00 0.00 0.00 0.01 0.00 0.00 0.00 0.00 0.01 0.01 0.01 0.01 0.02 0.02 0.02 0.01 0.01 0.01 0.02 0.02 0.02 0.01 0.00 0.00 0.00 0.00 0.00 0.01 0.01 0.01 0.01 0.01 0.02 0.02 0.04 0.05 0.03 0.02 0.01 0.01 0.02 0.02 0.03 0.05
0.00 0.00 0.00 0.01 0.01 0.00 0.00 0.01 0.01 0.01 0.00 0.00 0.01 0.01 0.01 0.01 0.01 0.01 0.00 0.01 0.01 0.01 0.01 0.02 0.03 0.04 0.01 0.00 0.00 0.00 0.00 0.00 0.00 0.00 0.01 0.01 0.01 0.01 0.03 0.03 0.03 0.03 0.03 0.02 0.01 0.02 0.02 0.03 0.05
0.00 0.00 0.00 0.01 0.00 0.00 0.00 0.00 0.01 0.02 0.01 0.01 0.01 0.00 0.00 0.01 0.01 0.01 0.01 0.01 0.01 0.01 0.01 0.02 0.03 0.04 0.02 0.01 0.00 0.00 0.00 0.00 0.00 0.00 0.00 0.01 0.02 0.01 0.02 0.05 0.06 0.04 0.03 0.02 0.02 0.03 0.03 0.03 0.05
0.00 0.00 0.00 0.00 0.00 0.00 0.00 0.01 0.01 0.02 0.02 0.01 0.01 0.01 0.01 0.01 0.01 0.02 0.02 0.02 0.02 0.02 0.03 0.03 0.02 0.04 0.03 0.02 0.03 0.02 0.01 0.01 0.01 0.01 0.00 0.01 0.01 0.02 0.02 0.03 0.05 0.05 0.05 0.05 0.05 0.04 0.04 0.05 0.06
0.00 0.00 0.00 0.00 0.01 0.01 0.01 0.01 0.01 0.01 0.01 0.01 0.01 0.01 0.01 0.01 0.01 0.01 0.01 0.02 0.02 0.03 0.05 0.06 0.06 0.06 0.05 0.04 0.05 0.05 0.03 0.02 0.02 0.02 0.01 0.01 0.02 0.02 0.03 0.02 0.03 0.04 0.06 0.06 0.06 0.05 0.05 0.05 0.06
0.00 0.00 0.00 0.01 0.01 0.02 0.01 0.01 0.01 0.01 0.01 0.01 0.00 0.00 0.00 0.01 0.01 0.01 0.01 0.02 0.03 0.04 0.08 0.11 0.14 0.12 0.09 0.06 0.06 0.06 0.04 0.03 0.03 0.03 0.02 0.01 0.02 0.02 0.02 0.02 0.03 0.03 0.04 0.05 0.05 0.04 0.05 0.04 0.04
0.00 0.00 0.00 0.00 0.01 0.02 0.01 0.01 0.00 0.01 0.01 0.00 0.00 0.00 0.00 0.01 0.01 0.01 0.02 0.02 0.03 0.04 0.05 0.10 0.18 0.16 0.12 0.09 0.10 0.11 0.09 0.06 0.05 0.04 0.02 0.03 0.02 0.03 0.03 0.03 0.03 0.03 0.03 0.04 0.04 0.04 0.05 0.05 0.04
0.00 0.00 0.00 0.00 0.01 0.01 0.01 0.01 0.01 0.01 0.01 0.01 0.01 0.01 0.00 0.00 0.01 0.01 0.01 0.01 0.02 0.02 0.03 0.04 0.06 0.09 0.09 0.10 0.11 0.11 0.10 0.08 0.05 0.04 0.04 0.04 0.05 0.06 0.04 0.04 0.03 0.04 0.04 0.06 0.06 0.07 0.07 0.06 0.04
0.00 0.00 0.00 0.01 0.01 0.01 0.01 0.01 0.01 0.01 0.01 0.01 0.01 0.01 0.01 0.01 0.01 0.01 0.01 0.01 0.02 0.03 0.04 0.05 0.05 0.07 0.09 0.10 0.07 0.06 0.06 0.04 0.03 0.03 0.03 0.03 0.05 0.07 0.07 0.06 0.05 0.04 0.04 0.05 0.05 0.05 0.06 0.05 0.04
0.00 0.00 0.01 0.01 0.01 0.01 0.01 0.00 0.00 0.01 0.01 0.01 0.00 0.01 0.01 0.01 0.01 0.01 0.00 0.01 0.02 0.06 0.06 0.07 0.08 0.09 0.10 0.10 0.07 0.05 0.05 0.05 0.04 0.04 0.03 0.02 0.04 0.05 0.06 0.07 0.06 0.04 0.03 0.03 0.04 0.04 0.05 0.05 0.04
0.00 0.01 0.01 0.01 0.00 0.01 0.00 0.00 0.00 0.00 0.00 0.00 0.00 0.00 0.01 0.02 0.01 0.01 0.01 0.02 0.04 0.07 0.09 0.10 0.12 0.10 0.10 0.09 0.07 0.05 0.05 0.06 0.05 0.03 0.02 0.02 0.03 0.04 0.05 0.06 0.04 0.04 0.03 0.02 0.04 0.04 0.05 0.04 0.04
0.01 0.01 0.00 0.00 0.00 0.00 0.00 0.00 0.00 0.00 0.00 0.00 0.00 0.00 0.01 0.02 0.02 0.03 0.04 0.04 0.04 0.07 0.09 0.09 0.14 0.11 0.09 0.09 0.07 0.05 0.04 0.05 0.04 0.03 0.02 0.02 0.03 0.03 0.05 0.06 0.06 0.06 0.05 0.05 0.05 0.05 0.03 0.03 0.03
0.00 0.01 0.01 0.00 0.00 0.00 0.00 0.00 0.00 0.00 0.00 0.00 0.00 0.01 0.01 0.01 0.03 0.06 0.07 0.05 0.06 0.07 0.08 0.09 0.12 0.11 0.09 0.09 0.08 0.07 0.06 0.05 0.04 0.03 0.02 0.03 0.03 0.05 0.07 0.06 0.06 0.06 0.07 0.07 0.06 0.04 0.04 0.03 0.02
0.00 0.01 0.01 0.01 0.00 0.00 0.00 0.00 0.00 0.00 0.00 0.00 0.00 0.00 0.01 0.02 0.03 0.05 0.07 0.05 0.05 0.05 0.06 0.08 0.10 0.11 0.11 0.11 0.12 0.11 0.09 0.07 0.07 0.06 0.04 0.04 0.04 0.05 0.05 0.05 0.05 0.05 0.06 0.07 0.06 0.05 0.04 0.04 0.02
0.00 0.01 0.01 0.01 0.00 0.00 0.00 0.00 0.00 0.00 0.00 0.01 0.01 0.01 0.01 0.01 0.02 0.03 0.04 0.05 0.04 0.04 0.04 0.06 0.09 0.12 0.14 0.14 0.13 0.12 0.11 0.10 0.10 0.08 0.06 0.06 0.05 0.06 0.05 0.04 0.04 0.04 0.04 0.06 0.06 0.05 0.04 0.04 0.03
0.00 0.01 0.01 0.01 0.00 0.00 0.00 0.00 0.00 0.00 0.00 0.01 0.01 0.01 0.01 0.01 0.01 0.02 0.04 0.05 0.05 0.05 0.04 0.06 0.11 0.16 0.16 0.13 0.11 0.12 0.10 0.10 0.10 0.07 0.06 0.05 0.04 0.05 0.06 0.06 0.05 0.05 0.05 0.06 0.05 0.04 0.04 0.03 0.04
0.00 0.00 0.00 0.00 0.00 0.00 0.00 0.00 0.00 0.00 0.00 0.00 0.00 0.00 0.01 0.01 0.02 0.03 0.03 0.03 0.04 0.05 0.05 0.07 0.09 0.09 0.10 0.11 0.09 0.10 0.14 0.15 0.11 0.07 0.05 0.04 0.04 0.05 0.05 0.05 0.04 0.04 0.05 0.06 0.05 0.04 0.03 0.02 0.02
MSLP
1004.71 1005.57 1006.79 1008.22 1009.67 1010.94 1011.90 1012.46 1012.63 1012.47 1012.12 1011.72 1011.41 1011.25 1011.27 1011.44 1011.67 1011.88 1012.00 1011.99 1011.87 1011.66 1011.45 1011.29 1011.22 1011.27 1011.41 1011.61 1011.81 1011.96 1012.07 1012.11 1012.14 1012.17 1012.25 1012.39 1012.60 1012.85 1013.13 1013.38 1013.60 1013.78 1013.93 1014.07 1014.23 1014.43 1014.68 1014.96 1015.25
1005.24 1006.32 1007.69 1009.17 1010.57 1011.70 1012.45 1012.76 1012.67 1012.28 1011.74 1011.22 1010.83 1010.66 1010.72 1010.95 1011.26 1011.56 1011.78 1011.86 1011.82 1011.70 1011.55 1011.46 1011.45 1011.54 1011.71 1011.93 1012.15 1012.33 1012.46 1012.53 1012.58 1012.64 1012.73 1012.88 1013.07 1013.30 1013.53 1013.74 1013.92 1014.07 1014.20 1014.33 1014.50 1014.72 1014.98 1015.27 1015.57
1006.03 1007.27 1008.70 1010.15 1011.41 1012.34 1012.84 1012.89 1012.56 1011.97 1011.31 1010.72 1010.33 1010.19 1010.31 1010.61 1011.00 1011.38 1011.66 1011.81 1011.83 1011.76 1011.68 1011.63 1011.67 1011.80 1012.01 1012.25 1012.49 1012.69 1012.84 1012.93 1013.00 1013.07 1013.16 1013.30 1013.47 1013.67 1013.86 1014.03 1014.18 1014.30 1014.42 1014.57 1014.75 1014.99 1015.27 1015.58 1015.89
1007.05 1008.36 1009.76 1011.08 1012.15 1012.83 1013.06 1012.87 1012.35 1011.64 1010.91 1010.33 1009.99 1009.92 1010.12 1010.49 1010.94 1011.37 1011.68 1011.86 1011.92 1011.89 1011.85 1011.85 1011.93 1012.09 1012.32 1012.58 1012.83 1013.04 1013.19 1013.29 1013.36 1013.43 1013.53 1013.65 1013.80 1013.97 1014.13 1014.28 1014.40 1014.52 1014.65 1014.80 1015.01 1015.27 1015.56 1015.88 1016.19
1008.19 1009.48 1010.78 1011.91 1012.72 1013.14 1013.13 1012.74 1012.09 1011.33 1010.62 1010.10 1009.85 1009.89 1010.16 1010.60 1011.08 1011.52 1011.84 1012.03 1012.10 1012.10 1012.08 1012.12 1012.23 1012.42 1012.66 1012.92 1013.17 1013.37 1013.51 1013.60 1013.67 1013.74 1013.83 1013.94 1014.08 1014.23 1014.38 1014.51 1014.64 1014.76 1014.90 1015.08 1015.30 1015.57 1015.88 1016.19 1016.49
1009.29 1010.50 1011.62 1012.51 1013.07 1013.23 1013.02 1012.50 1011.80 1011.07 1010.45 1010.05 1009.92 1010.07 1010.42 1010.89 1011.37 1011.79 1012.10 1012.27 1012.34 1012.35 1012.37 1012.44 1012.58 1012.78 1013.03 1013.29 1013.52 1013.69 1013.81 1013.88 1013.94 1014.00 1014.08 1014.19 1014.33 1014.48 1014.63 1014.77 1014.90 1015.04 1015.19 1015.39 1015.62 1015.89 1016.19 1016.49 1016.78
1010.20 1011.26 1012.17 1012.81 1013.12 1013.08 1012.74 1012.17 1011.50 1010.87 1010.39 1010.15 1010.16 1010.40 1010.80 1011.28 1011.75 1012.13 1012.39 1012.53 1012.60 1012.63 1012.68 1012.78 1012.95 1013.17 1013.42 1013.66 1013.86 1014.00 1014.09 1014.14 1014.19 1014.24 1014.33 1014.45 1014.60 1014.76 1014.92 1015.07 1015.22 1015.37 1015.53 1015.73 1015.96 1016.22 1016.49 1016.77 1017.02
1010.79 1011.67 1012.35 1012.76 1012.86 1012.68 1012.28 1011.73 1011.17 1010.69 1010.40 1010.32 1010.47 1010.80 1011.23 1011.70 1012.12 1012.44 1012.65 1012.77 1012.83 1012.89 1012.97 1013.12 1013.32 1013.56 1013.80 1014.02 1014.19 1014.30 1014.36 1014.40 1014.43 1014.49 1014.59 1014.73 1014.90 1015.08 1015.25 1015.42 1015.57 1015.72 1015.89 1016.07 1016.29 1016.52 1016.76 1017.00 1017.21
1011.03 1011.71 1012.16 1012.37 1012.32 1012.06 1011.66 1011.21 1010.79 1010.51 1010.41 1010.50 1010.77 1011.17 1011.61 1012.05 1012.41 1012.67 1012.84 1012.94 1013.01 1013.10 1013.22 1013.41 1013.65 1013.90 1014.15 1014.35 1014.49 1014.58 1014.62 1014.65 1014.69 1014.77 1014.89 1015.06 1015.25 1015.45 1015.63 1015.80 1015.95 1016.10 1016.24 1016.40 1016.59 1016.78 1016.98 1017.17 1017.34
1010.96 1011.43 1011.69 1011.73 1011.58 1011.29 1010.95 1010.62 1010.39 1010.30 1010.39 1010.63 1011.00 1011.44 1011.88 1012.27 1012.58 1012.79 1012.92 1013.02 1013.11 1013.23 1013.41 1013.64 1013.91 1014.18 1014.42 1014.61 1014.74 1014.82 1014.86 1014.89 1014.96 1015.06 1015.21 1015.41 1015.62 1015.83 1016.02 1016.19 1016.33 1016.45 1016.57 1016.70 1016.84 1017.00 1017.16 1017.31 1017.44
1010.69 1010.97 1011.05 1010.97 1010.75 1010.48 1010.22 1010.04 1009.98 1010.07 1010.31 1010.68 1011.11 1011.57 1011.99 1012.34 1012.60 1012.78 1012.90 1013.01 1013.13 1013.30 1013.52 1013.79 1014.09 1014.37 1014.61 1014.80 1014.92 1014.99 1015.04 1015.10 1015.20 1015.34 1015.53 1015.75 1015.98 1016.20 1016.39 1016.54 1016.65 1016.75 1016.84 1016.94 1017.05 1017.18 1017.31 1017.43 1017.53
1010.39 1010.50 1010.44 1010.25 1010.01 1009.76 1009.59 1009.53 1009.61 1009.84 1010.20 1010.64 1011.11 1011.56 1011.96 1012.28 1012.51 1012.68 1012.80 1012.93 1013.09 1013.30 1013.57 1013.86 1014.17 1014.46 1014.70 1014.88 1015.00 1015.09 1015.16 1015.25 1015.38 1015.56 1015.78 1016.03 1016.28 1016.50 1016.68 1016.81 1016.91 1016.98 1017.05 1017.12 1017.21 1017.32 1017.44 1017.54 1017.64
1010.22 1010.18 1009.99 1009.73 1009.46 1009.25 1009.14 1009.17 1009.35 1009.66 1010.08 1010.55 1011.02 1011.46 1011.83 1012.12 1012.34 1012.51 1012.66 1012.82 1013.02 1013.26 1013.55 1013.86 1014.17 1014.45 1014.68 1014.86 1014.99 1015.09 1015.19 1015.32 1015.49 1015.70 1015.95 1016.22 1016.47 1016.69 1016.86 1016.98 1017.06 1017.12 1017.18 1017.24 1017.33 1017.44 1017.56 1017.67 1017.76
1010.28 1010.12 1009.84 1009.52 1009.23 1009.03 1008.96 1009.03 1009.25 1009.58 1010.00 1010.45 1010.90 1011.30 1011.64 1011.92 1012.13 1012.32 1012.49 1012.68 1012.91 1013.17 1013.47 1013.78 1014.07 1014.34 1014.56 1014.73 1014.87 1015.00 1015.13 1015.29 1015.49 1015.73 1015.99 1016.27 1016.52 1016.74 1016.90 1017.02 1017.10 1017.16 1017.22 1017.30 1017.41 1017.54 1017.67 1017.80 1017.91
1010.60 1010.34 1010.00 1009.63 1009.33 1009.13 1009.06 1009.13 1009.34 1009.65 1010.02 1010.41 1010.79 1011.15 1011.45 1011.70 1011.92 1012.12 1012.31 1012.53 1012.77 1013.04 1013.32 1013.61 1013.89 1014.14 1014.35 1014.53 1014.69 1014.84 1014.99 1015.18 1015.40 1015.64 1015.91 1016.18 1016.42 1016.63 1016.80 1016.92 1017.02 1017.10 1017.19 1017.31 1017.44 1017.60 1017.77 1017.92 1018.05
1011.11 1010.79 1010.41 1010.03 1009.72 1009.51 1009.44 1009.48 1009.63 1009.87 1010.15 1010.45 1010.75 1011.03 1011.28 1011.50 1011.71 1011.91 1012.11 1012.33 1012.57 1012.83 1013.10 1013.37 1013.63 1013.87 1014.08 1014.27 1014.45 1014.62 1014.80 1015.00 1015.23 1015.47 1015.72 1015.96 1016.19 1016.40 1016.57 1016.71 1016.84 1016.96 1017.10 1017.25 1017.43 1017.63 1017.82 1018.00 1018.15
1011.69 1011.36 1010.98 1010.62 1010.33 1010.13 1010.04 1010.04 1010.12 1010.25 1010.42 1010.60 1010.78 1010.96 1011.13 1011.31 1011.48 1011.67 1011.86 1012.07 1012.30 1012.54 1012.79 1013.04 1013.29 1013.53 1013.76 1013.98 1014.19 1014.39 1014.59 1014.79 1015.00 1015.22 1015.44 1015.66 1015.86 1016.06 1016.24 1016.41 1016.58 1016.75 1016.94 1017.15 1017.37 1017.61 1017.83 1018.04 1018.20
1012.20 1011.90 1011.58 1011.29 1011.06 1010.91 1010.82 1010.78 1010.77 1010.79 1010.82 1010.85 1010.89 1010.94 1011.02 1011.11 1011.23 1011.37 1011.54 1011.72 1011.92 1012.14 1012.37 1012.62 1012.88 1013.15 1013.41 1013.67 1013.92 1014.15 1014.37 1014.56 1014.75 1014.93 1015.10 1015.28 1015.46 1015.65 1015.84 1016.05 1016.27 1016.50 1016.75 1017.01 1017.28 1017.54 1017.79 1018.01 1018.19
1012.54 1012.34 1012.13 1011.97 1011.85 1011.77 1011.70 1011.64 1011.56 1011.45 1011.32 1011.19 1011.06 1010.97 1010.91 1010.90 1010.93 1011.01 1011.12 1011.26 1011.44 1011.64 1011.87 1012.13 1012.42 1012.73 1013.05 1013.37 1013.66 1013.92 1014.15 1014.33 1014.48 1014.61 1014.74 1014.87 1015.02 1015.20 1015.41 1015.66 1015.93 1016.22 1016.53 1016.84 1017.14 1017.43 1017.70 1017.93 1018.12
1012.67 1012.61 1012.59 1012.60 1012.64 1012.67 1012.66 1012.59 1012.43 1012.20 1011.91 1011.59 1011.28 1011.01 1010.80 1010.65 1010.58 1010.58 1010.63 1010.73 1010.88 1011.07 1011.31 1011.61 1011.94 1012.32 1012.70 1013.08 1013.42 1013.71 1013.94 1014.10 1014.20 1014.28 1014.35 1014.43 1014.55 1014.73 1014.96 1015.25 1015.58 1015.93 1016.30 1016.65 1016.99 1017.30 1017.58 1017.82 1018.02
1012.63 1012.77 1012.97 1013.20 1013.43 1013.60 1013.67 1013.60 1013.37 1013.01 1012.54 1012.03 1011.52 1011.06 1010.68 1010.39 1010.20 1010.11 1010.10 1010.16 1010.30 1010.49 1010.76 1011.10 1011.49 1011.93 1012.38 1012.81 1013.19 1013.50 1013.72 1013.85 1013.90 1013.92 1013.93 1013.98 1014.08 1014.25 1014.51 1014.84 1015.23 1015.64 1016.06 1016.46 1016.83 1017.16 1017.46 1017.71 1017.92
1012.52 1012.88 1013.33 1013.81 1014.25 1014.57 1014.71 1014.63 1014.33 1013.83 1013.19 1012.48 1011.77 1011.12 1010.56 1010.13 1009.84 1009.67 1009.60 1009.64 1009.77 1009.99 1010.29 1010.67 1011.12 1011.62 1012.12 1012.58 1012.99 1013.29 1013.49 1013.57 1013.58 1013.54 1013.50 1013.50 1013.59 1013.77 1014.06 1014.43 1014.87 1015.34 1015.81 1016.25 1016.66 1017.02 1017.33 1017.60 1017.84
1012.46 1013.06 1013.76 1014.47 1015.10 1015.54 1015.74 1015.65 1015.26 1014.62 1013.81 1012.91 1012.00 1011.18 1010.47 1009.92 1009.54 1009.31 1009.21 1009.24 1009.38 1009.63 1009.96 1010.39 1010.88 1011.41 1011.93 1012.41 1012.81 1013.09 1013.24 1013.28 1013.23 1013.13 1013.05 1013.03 1013.10 1013.29 1013.61 1014.03 1014.51 1015.03 1015.55 1016.03 1016.47 1016.86 1017.19 1017.49 1017.76
1012.57 1013.39 1014.30 1015.21 1015.98 1016.52 1016.73 1016.59 1016.11 1015.33 1014.35 1013.28 1012.21 1011.24 1010.42 1009.79 1009.35 1009.09 1008.99 1009.03 1009.19 1009.46 1009.83 1010.28 1010.79 1011.33 1011.85 1012.31 1012.67 1012.90 1013.00 1012.98 1012.87 1012.73 1012.61 1012.56 1012.63 1012.84 1013.18 1013.63 1014.16 1014.72 1015.28 1015.80 1016.26 1016.67 1017.03 1017.36 1017.66
1012.89 1013.88 1014.96 1016.00 1016.86 1017.42 1017.61 1017.40 1016.80 1015.89 1014.77 1013.56 1012.38 1011.32 1010.43 1009.75 1009.30 1009.04 1008.96 1009.03 1009.22 1009.51 1009.90 1010.36 1010.87 1011.38 1011.87 1012.28 1012.59 1012.76 1012.79 1012.71 1012.54 1012.36 1012.21 1012.15 1012.22 1012.44 1012.80 1013.28 1013.84 1014.42 1015.00 1015.54 1016.02 1016.45 1016.83 1017.18 1017.51
1013.41 1014.52 1015.69 1016.78 1017.65 1018.18 1018.30 1017.99 1017.28 1016.25 1015.03 1013.74 1012.49 1011.39 1010.49 1009.83 1009.39 1009.17 1009.13 1009.23 1009.45 1009.77 1010.16 1010.61 1011.09 1011.56 1012.00 1012.35 1012.58 1012.68 1012.65 1012.51 1012.30 1012.08 1011.91 1011.85 1011.92 1012.14 1012.51 1013.00 1013.57 1014.16 1014.74 1015.28 1015.76 1016.19 1016.57 1016.92 1017.26
1014.05 1015.21 1016.40 1017.46 1018.27 1018.71 1018.72 1018.30 1017.49 1016.38 1015.10 1013.79 1012.54 1011.47 1010.61 1010.00 1009.63 1009.46 1009.47 1009.61 1009.86 1010.18 1010.57 1010.99 1011.43 1011.85 1012.22 1012.50 1012.67 1012.71 1012.62 1012.44 1012.20 1011.96 1011.78 1011.71 1011.78 1012.01 1012.37 1012.85 1013.40 1013.97 1014.53 1015.04 1015.50 1015.90 1016.26 1016.59 1016.92
1014.73 1015.87 1016.99 1017.95 1018.63 1018.94 1018.82 1018.29 1017.40 1016.26 1014.98 1013.71 1012.53 1011.54 1010.78 1010.26 1009.97 1009.87 1009.93 1010.10 1010.36 1010.68 1011.05 1011.44 1011.83 1012.20 1012.52 1012.75 1012.87 1012.86 1012.75 1012.54 1012.29 1012.05 1011.88 1011.81 1011.87 1012.09 1012.43 1012.88 1013.39 1013.92 1014.42 1014.88 1015.28 1015.63 1015.93 1016.22 1016.50
1015.34 1016.38 1017.37 1018.17 1018.67 1018.82 1018.57 1017.95 1017.03 1015.90 1014.69 1013.52 1012.47 1011.61 1010.98 1010.57 1010.37 1010.34 1010.44 1010.64 1010.90 1011.21 1011.55 1011.91 1012.28 1012.61 1012.89 1013.09 1013.19 1013.18 1013.06 1012.86 1012.63 1012.40 1012.23 1012.17 1012.23 1012.42 1012.74 1013.14 1013.59 1014.05 1014.47 1014.85 1015.17 1015.43 1015.65 1015.86 1016.06
1015.81 1016.71 1017.50 1018.10 1018.41 1018.39 1018.02 1017.34 1016.43 1015.37 1014.28 1013.26 1012.39 1011.70 1011.21 1010.93 1010.82 1010.85 1010.98 1011.18 1011.44 1011.73 1012.06 1012.40 1012.74 1013.07 1013.34 1013.55 1013.66 1013.66 1013.57 1013.41 1013.20 1013.01 1012.87 1012.81 1012.87 1013.04 1013.31 1013.65 1014.02 1014.39 1014.72 1015.00 1015.21 1015.37 1015.49 1015.59 1015.70
Thickness
5825 5825 5822 5811 5789 5766 5761 5771 5780 5780 5783 5791 5793 5789 5780 5774 5769 5764 5780 5789 5789 5787 5785 5784 5783 5782 5782 5782 5781 5781 5781 5780 5779 5779 5778 5777 5776 5774 5773 5771 5770 5769 5767 5765 5764 5762 5760 5759 5758
5825 5824 5815 5798 5771 5750 5758 5774 5778 5783 5791 5796 5795 5790 5782 5777 5781 5780 5783 5788 5789 5787 5785 5783 5782 5781 5781 5780 5780 5780 5779 5779 5778 5777 5776 5775 5774 5772 5771 5770 5768 5767 5765 5763 5762 5760 5758 5757 5756
5825 5822 5802 5782 5765 5755 5764 5779 5782 5791 5799 5797 5790 5789 5782 5778 5782 5783 5787 5789 5788 5786 5784 5783 5781 5780 5780 5779 5779 5778 5778 5777 5776 5775 5774 5773 5772 5771 5770 5768 5766 5765 5763 5762 5760 5758 5757 5755 5754
5819 5808 5794 5774 5766 5772 5778 5785 5790 5790 5795 5797 5791 5782 5785 5790 5789 5789 5790 5789 5786 5784 5783 5781 5780 5779 5778 5778 5777 5776 5776 5775 5774 5773 5772 5771 5770 5769 5768 5766 5765 5763 5761 5760 5758 5757 5755 5754 5752
5813 5793 5774 5761 5768 5780 5789 5795 5796 5790 5790 5793 5790 5778 5777 5788 5794 5791 5789 5787 5784 5782 5782 5780 5779 5778 5777 5776 5775 5775 5774 5773 5772 5771 5770 5769 5768 5767 5766 5765 5763 5761 5760 5758 5757 5755 5754 5752 5751
5796 5783 5760 5754 5768 5783 5792 5799 5798 5792 5791 5792 5788 5777 5774 5786 5789 5788 5787 5785 5783 5781 5780 5779 5778 5777 5776 5774 5774 5773 5773 5771 5771 5770 5768 5767 5766 5765 5764 5763 5761 5760 5758 5757 5755 5754 5752 5751 5749
5787 5773 5762 5765 5768 5779 5792 5801 5796 5791 5789 5792 5792 5775 5775 5781 5787 5788 5785 5783 5781 5780 5778 5777 5776 5775 5774 5773 5772 5771 5770 5769 5768 5767 5766 5765 5764 5763 5762 5760 5759 5758 5757 5755 5754 5752 5751 5749 5748
5794 5775 5765 5764 5770 5777 5795 5801 5801 5796 5793 5802 5798 5778 5775 5783 5787 5786 5782 5779 5778 5777 5776 5775 5775 5774 5773 5772 5771 5770 5769 5767 5766 5765 5764 5763 5762 5761 5760 5758 5757 5756 5755 5754 5752 5750 5749 5748 5747
5797 5768 5759 5769 5776 5783 5797 5797 5800 5806 5801 5800 5800 5794 5792 5791 5786 5781 5777 5774 5773 5773 5773 5773 5773 5772 5771 5770 5769 5768 5767 5766 5765 5763 5762 5761 5759 5758 5757 5756 5755 5754 5753 5752 5750 5749 5748 5747 5746
5784 5762 5771 5786 5792 5793 5797 5797 5798 5797 5792 5790 5791 5794 5794 5789 5784 5778 5774 5772 5771 5770 5771 5771 5771 5770 5769 5769 5767 5766 5765 5764 5762 5761 5760 5758 5757 5756 5756 5755 5754 5752 5751 5750 5748 5747 5746 5745 5744
5785 5775 5785 5794 5801 5801 5798 5798 5803 5794 5784 5790 5790 5789 5788 5785 5781 5778 5775 5774 5773 5772 5771 5770 5769 5769 5768 5767 5766 5764 5763 5761 5760 5759 5758 5756 5755 5754 5754 5753 5752 5750 5749 5748 5746 5746 5744 5743 5742
5784 5786 5794 5799 5804 5803 5800 5800 5799 5797 5798 5807 5803 5798 5791 5785 5781 5779 5776 5774 5773 5771 5770 5769 5769 5767 5766 5765 5764 5762 5761 5760 5759 5757 5756 5755 5754 5753 5752 5751 5750 5748 5747 5745 5744 5744 5743 5742 5741
5784 5789 5797 5802 5803 5804 5803 5799 5799 5800 5808 5809 5802 5795 5790 5786 5783 5781 5780 5776 5774 5771 5770 5769 5768 5766 5765 5763 5762 5761 5759 5758 5757 5756 5755 5754 5752 5751 5750 5748 5747 5746 5745 5744 5743 5742 5741 5741 5740
5788 5791 5794 5798 5801 5804 5798 5796 5796 5799 5806 5802 5796 5791 5789 5786 5783 5781 5779 5776 5774 5772 5770 5770 5768 5766 5764 5763 5761 5760 5758 5757 5755 5754 5753 5752 5751 5749 5748 5746 5744 5744 5743 5742 5741 5740 5740 5739 5738
5790 5784 5786 5793 5797 5799 5796 5785 5791 5801 5802 5795 5792 5790 5788 5786 5784 5783 5782 5779 5777 5774 5772 5769 5768 5766 5763 5762 5760 5759 5757 5756 5754 5753 5752 5751 5749 5748 5746 5744 5743 5742 5741 5740 5739 5739 5738 5738 5737
5780 5771 5766 5783 5792 5795 5787 5772 5791 5799 5796 5790 5790 5789 5787 5786 5786 5785 5784 5781 5778 5775 5772 5770 5769 5765 5763 5761 5759 5758 5756 5755 5754 5753 5751 5750 5749 5747 5745 5743 5741 5741 5740 5739 5738 5737 5735 5735 5734
5756 5752 5758 5773 5788 5790 5783 5775 5790 5795 5793 5788 5788 5788 5787 5785 5785 5786 5785 5783 5779 5776 5773 5769 5768 5765 5762 5760 5758 5756 5755 5754 5753 5752 5751 5749 5748 5746 5744 5742 5740 5739 5739 5738 5737 5735 5734 5732 5731
5744 5751 5756 5762 5779 5782 5776 5777 5787 5792 5791 5788 5788 5787 5786 5786 5787 5788 5786 5784 5781 5777 5773 5770 5767 5765 5762 5758 5755 5754 5753 5752 5751 5750 5750 5749 5747 5745 5743 5741 5739 5738 5737 5736 5735 5733 5732 5731 5730
5756 5754 5753 5762 5778 5776 5772 5774 5781 5787 5787 5785 5785 5785 5786 5788 5790 5788 5787 5785 5781 5777 5773 5770 5766 5764 5761 5757 5754 5751 5749 5750 5750 5749 5748 5747 5746 5744 5742 5740 5738 5737 5736 5735 5734 5732 5730 5728 5728
5754 5750 5751 5760 5773 5772 5766 5769 5780 5784 5786 5789 5788 5787 5788 5786 5785 5786 5786 5784 5782 5778 5774 5771 5768 5765 5762 5760 5757 5754 5752 5750 5750 5748 5747 5746 5745 5743 5741 5739 5737 5736 5734 5733 5732 5731 5728 5726 5726
5747 5747 5750 5752 5760 5765 5762 5758 5770 5780 5786 5787 5789 5790 5791 5789 5787 5787 5786 5785 5782 5779 5776 5774 5770 5766 5763 5760 5756 5753 5750 5748 5747 5746 5745 5745 5743 5742 5740 5739 5737 5735 5733 5731 5731 5730 5727 5724 5723
5737 5755 5755 5753 5744 5736 5750 5733 5758 5769 5775 5781 5785 5788 5791 5793 5792 5790 5788 5786 5785 5782 5779 5776 5771 5767 5764 5760 5756 5752 5749 5746 5747 5747 5745 5744 5743 5741 5739 5738 5736 5734 5733 5731 5730 5729 5727 5724 5721
5746 5757 5754 5750 5740 5732 5739 5732 5744 5761 5765 5776 5785 5790 5794 5796 5796 5794 5793 5791 5788 5784 5780 5776 5771 5767 5764 5762 5759 5755 5751 5749 5747 5746 5744 5743 5742 5741 5739 5737 5735 5734 5732 5731 5730 5728 5727 5725 5723
5754 5746 5737 5727 5722 5713 5730 5729 5736 5751 5765 5778 5788 5793 5796 5797 5797 5796 5795 5792 5787 5784 5780 5775 5770 5767 5765 5761 5759 5756 5752 5749 5746 5744 5742 5741 5740 5739 5738 5737 5735 5734 5732 5731 5730 5728 5726 5725 5723
5743 5720 5702 5703 5695 5704 5727 5728 5736 5766 5777 5783 5788 5793 5797 5797 5796 5794 5792 5789 5786 5782 5779 5775 5770 5766 5765 5761 5759 5757 5754 5751 5748 5746 5743 5741 5739 5739 5738 5737 5735 5733 5732 5730 5729 5727 5726 5725 5723
5732 5724 5700 5693 5692 5703 5722 5723 5748 5775 5782 5786 5790 5794 5796 5795 5796 5795 5793 5790 5786 5781 5778 5774 5770 5767 5765 5762 5759 5757 5754 5752 5749 5747 5745 5743 5741 5741 5739 5737 5736 5734 5732 5730 5729 5727 5726 5725 5723
5725 5720 5725 5704 5702 5702 5710 5728 5752 5773 5777 5782 5786 5789 5791 5793 5794 5793 5792 5790 5786 5781 5778 5775 5770 5766 5765 5762 5758 5755 5753 5751 5749 5747 5745 5744 5742 5741 5739 5738 5736 5734 5732 5730 5729 5727 5726 5725 5723
5738 5725 5708 5699 5688 5692 5710 5721 5733 5760 5768 5775 5780 5784 5787 5790 5791 5791 5790 5790 5787 5783 5780 5775 5771 5768 5765 5761 5758 5755 5753 5751 5749 5746 5744 5743 5742 5740 5739 5737 5736 5734 5732 5730 5728 5727 5726 5724 5723
5724 5719 5709 5697 5699 5689 5694 5715 5754 5761 5768 5771 5777 5782 5785 5786 5787 5787 5788 5787 5786 5783 5779 5775 5771 5767 5764 5761 5759 5756 5754 5751 5748 5745 5744 5743 5741 5740 5738 5737 5735 5734 5732 5731 5728 5727 5725 5723 5722
5735 5723 5712 5702 5696 5695 5696 5717 5765 5766 5768 5771 5775 5780 5783 5785 5786 5785 5785 5784 5782 5779 5776 5772 5769 5766 5764 5761 5758 5756 5753 5750 5747 5745 5743 5742 5740 5739 5738 5737 5735 5733 5732 5730 5728 5726 5725 5723 5721